Location: *
(33.8649°S, 62.1526°E)
Time: 04:13:27
(UTC+00:00)

Meteor 2-15 Rocket - Pass Details

Date: 17 January 2021
Orbit: 940 x 955 km, 82.5° (Epoch: 27 February)

Event Time Altitude Azimuth Distance (km) Brightness Sun altitude
Exits shadow 16:36:30 14° 6° (N) 2,383 6.1 -16.9°
Maximum altitude 16:41:47 69° 86° (E) 1,025 4.4 -17.7°
Drops below altitude 10° 16:47:55 10° 168° (SSE) 2,697 7.2 -18.6°
Sets 16:50:26 0° 170° (S) 3,647 8.0 -19.0°
